sat.trackr.live / text

‹ back to catalog

STARLINK-30447

NORAD 57874 · 2023-144L

PAYLOAD ACTIVE UNKNOWN

§ Identity

Operator
Country
US
Launch date
2023-09-16
Launch site
AFETR
Launch vehicle
Mass (kg)
RCS (m²)

Purposes: comms

External: N2YO · Heavens-Above · Gunter

§ Orbital elements

Epoch: 2026-05-25T03:08:00.892032Z

Period
94.27 min
Inclination
43.0006°
Eccentricity
0.0001325
Mean motion
15.27575326 rev/d
Perigee alt
482.2 km
Apogee alt
484.0 km
Semi-major
6,861.2 km
B*
1.8182e-5
RAAN
187.7562°
Arg perigee
267.8919°
Mean anomaly
92.1781°
Rev number
14,962

§ Raw data

STARLINK-304471 57874U 23144L   26145.13056588  .00000238  00000+0  18182-4 0  99952 57874  43.0006 187.7562 0001325 267.8919  92.1781 15.27575326149628

JSON: /api/v1/satellites/57874 · /tle

For live sub-satellite position, see the globe view (requires WebGL).

§ Visibility from observer

Set your observer location to see the next 7 days of passes ≥ 10°. The values pass through the URL so the page stays shareable.

No JS? Fill the form by hand. The geolocation button needs JavaScript.